C/2020 P3 ( ATLAS )

Japanese version
Home page
Updated on September 6, 2020

---------------------------------------------------------------------

* Profile

Discovery Date August 9, 2020
Magnitude 19.0 mag
Discoverer Asteroid Terrestrial-Impact Last Alert System (ATLAS) search program

* Pictures

* Orbital Elements

Epoch 2021 Apr. 16.0 TT = JDT 2459320.5
T 2021 Apr. 23.38603 TT                                 Rudenko
q   6.8080223            (2000.0)            P               Q
z  +0.0001992      Peri.   82.44581     -0.03196166     -0.95515726
 +/-0.0005300      Node    19.49586     +0.09642799     -0.29609232
e   0.9986439      Incl.   61.88870     +0.99482667     -0.00198711
From 92 observations 2020 Aug. 9-29, mean residual 0".3.

* Magnitudes Graph

        m1 = 6.0 + 5 log d + 10.0 log r

---------------------------------------------------------------------

The orbital elements are published on M.P.E.C. 2020-R04.
The magnitudes graphs are made with Comet for Windows.

---------------------------------------------------------------------

Copyright(C) Seiichi Yoshida (comet@aerith.net). All rights reserved.